Regional Weather Roundup
Issued by NWS

Home | Current Version | Previous Version | Graphics & Text | Print | Product List | Glossary On
Versions: 1 2 3 4 5 6 7 8 9 10 11 12 13 14 15 16 17 18 19 20 21 22 23 24 25 26 27 28 29 30 31 32 33 34 35 36 37 38 39 40 41 42 43 44 45 46 47 48 49 50
000
ASUS43 KOAX 060902
RWRNE

WEATHER ROUNDUP FOR NEBRASKA
NATIONAL WEATHER SERVICE OMAHA NE
400 AM CDT FRI MAY 06 2016

NOTES: SATELLITE DATA IS BEING USED TO AUGMENT CLOUD COVER ABOVE
       12000 FEET.
       "FAIR" INDICATES FEW OR NO CLOUDS BELOW 12,000 FEET WITH NO
       SIGNIFICANT WEATHER AND/OR OBSTRUCTIONS TO VISIBILITY.

  * THESE STATIONS DO NOT REPORT WEATHER SUCH AS RAIN...SNOW OR FOG.

NEZ001>004-019>022-054>056-061000-
NEBRASKA PANHANDLE

CITY           SKY/WX    TMP DP  RH WIND       PRES   REMARKS
SCOTTSBLUFF    CLOUDY    65  42  43 VRB3      29.94F
ALLIANCE       PTCLDY    50  44  80 SE7       29.95F
CHADRON        CLOUDY    54  44  69 CALM      29.89F
KIMBALL        CLOUDY    52  43  71 S7        30.00F
SIDNEY         CLOUDY    54  44  69 SW13      29.98F
$$

NEZ057>060-069>072-079>082-061000-
SOUTHWEST NEBRASKA

CITY           SKY/WX    TMP DP  RH WIND       PRES   REMARKS
NORTH PLATTE   PTCLDY    57  46  66 S5        29.99S
IMPERIAL       CLOUDY    58  46  64 S14       29.98F
MCCOOK         PTCLDY    57  46  66 S8        30.00F
$$

NEZ005>010-023>029-035>040-094-061000-
NORTH CENTRAL NEBRASKA

CITY           SKY/WX    TMP DP  RH WIND       PRES   REMARKS
VALENTINE      CLEAR     63  47  55 SW21      29.91S
AINSWORTH      CLEAR     61  46  58 SW15      29.93F
BROKEN BOW     LGT RAIN  60  45  57 SW13      29.99F
ORD            PTCLDY    56  46  69 S7        29.97S
$$

NEZ041-046>049-061>064-073>077-083>087-061000-
SOUTH CENTRAL NEBRASKA

CITY           SKY/WX    TMP DP  RH WIND       PRES   REMARKS
GRAND ISLAND   CLEAR     61  41  47 S15       30.00F
AURORA         CLEAR     57  42  57 SW12      30.01S
HASTINGS       CLOUDY    56  42  59 S7        30.01F
KEARNEY *      CLEAR     57  43  58 SW13      30.01F
YORK           CLEAR     54  43  66 SW9       30.01S
$$

NEZ011>018-030>034-042>045-061000-
NORTHEAST NEBRASKA

CITY           SKY/WX    TMP DP  RH WIND       PRES   REMARKS
NORFOLK        CLEAR     56  42  59 S13       29.96S
ALBION         CLEAR     56  42  58 E3        29.99S
BLAIR          CLEAR     55  43  64 S7        29.98F
COLUMBUS *     CLEAR     59  39  47 SW7       29.99S
FREMONT        CLEAR     60  43  52 S8        29.99S
TEKAMAH        CLEAR     54  44  69 S9        29.97S
$$

NEZ050>053-065>068-078-088>093-061000-
SOUTHEAST NEBRASKA

CITY           SKY/WX    TMP DP  RH WIND       PRES   REMARKS
LINCOLN        CLEAR     56  43  61 S3        30.02S
OMAHA EPPLEY   CLEAR     52  44  74 SE9       29.99F
BEATRICE       CLEAR     52  44  73 CALM      30.03R
FALLS CITY     PTCLDY    53  43  68 E3        30.02S
$$

NEZ044-045-051>053-067-061000-
OMAHA AREA

CITY           SKY/WX    TMP DP  RH WIND       PRES   REMARKS
OMAHA EPPLEY   CLEAR     52  44  74 SE9       29.99F
BLAIR          CLEAR     55  43  64 S7        29.98F
FREMONT        CLEAR     60  43  52 S8        29.99S
OFFUTT AFB     CLEAR     49  46  92 E2        29.99S
$$




USA.gov is the U.S. government's official web portal to all federal, state and local government web resources and services.